Tracking 30696 objects as of 16-Jun-2025
HD Live streaming from Space Station
objects crossing your sky now

SL-8 DEB *

Track SL-8 DEB * now!
10-day predictions


NORAD ID: 18512
Int'l Code: 1977-119E
Perigee: 586.9 km
Apogee: 587.7 km
Inclination: 74.0 °
Period: 96.3 minutes
Semi major axis: 6958 km
RCS: 0.0059 m2 (small)
Launch date: December 16, 1977
Source: Commonwealth of Independent States (former USSR) (CIS)
Launch site: PLESETSK MISSILE AND SPACE COMPLEX (PKMTR)

Note: This is SATELLITE DEBRIS
Your satellite tracking list
Your tracking list is empty




NASA's NSSDC Master Catalog

Two Line Element Set (TLE):
1 18512U 77119E   25166.59266792  .00005695  00000-0  51448-3 0  9998
2 18512  74.0232 220.2769 0000591 124.0337  27.2880 14.95712675153496
Source of the keplerian elements: AFSPC